DECAYED
Showing default

FLOCK 4Y 2, 55074 (Decayed)

Orbit data source: Space-Track

FLOCK 4Y 2, 55074 was a payload satellite owned by Planet (US) in LEO that was launched on Tue, 03 Jan 2023 UTC via an FALCON 9 launch vehicle from the Air Force Eastern Test Range (AFETR). Payload-class satellites include a variety of spacecraft equipped with specific instruments for various scientific and technological missions. These include communications satellites like Starlink; space stations such as the ISS; scientific satellites like the Hubble; Earth observation satellites from companies like Planet Labs, Umbra, and HawkEye 360; GPS; miniature CubeSats for education and research; and military/defense satellites.

Not visible in the next 10 days
Identifier
55074, 2023-001BT
Orbit
Decayed
Country
Flag of USUS
Related business
Manufacturer
Planet
Mission
Decayed Commercial Imaging
Bus & Motor
CUBESAT 3U, Unknown motor
Mass
5.7 kg wet, 5.7 kg dry
Launch date (UTC)
2023-01-03 (3 years ago)
Launch vehicle
FALCON 9
Launch site
Air Force Eastern Test Range (AFETR)
Object type
Payload
Rocket body
Debris
Shape & HBR
Box + 2 Pan, 1.0 m
Radar Cross Section
0.108 m², Medium (>0.1 m² and < 1m²)

Expand to show TLE details & history
Last TLE update: 2 months ago

TLE from 2 months ago
0 FLOCK 4Y 2
1 55074U 23001BT  25267.25135519  .08783332  24569-5  17658-2 0  9994
2 55074  97.3338 345.9325 0013578 274.6969  85.2775 16.31156713152594
Epoch: 2025-09-24T06:01Z
TLE epoch observation values (Epoch: 2025-09-24T06:01:57.088Z)
Latitude
-0.00003°
Longitude
-107.88488°
Altitude
191.952 km
Speed
7.792 km/s
True Right ascension
23h 03m 43s
True Declination
0° 00' 00"
Sunlit
Object was in full shadow at epoch
Visualization orbit readout
Latitude
Unknown
Longitude
Unknown
Altitude
Unknown
Speed
Unknown
Apparent Right ascension
Unknown
Apparent Declination
Unknown
Sunlit
N/A
Visualization observer readout
Local Sidereal Time
03:52:13
Azimuth
Unknown
Elevation
Unknown
Doppler factor
Unknown
Orbital elements
Apogee altitude
195.162 km
Perigee altitude
177.336 km
Semi-major axis
6,564.386 km
Eccentricity
0.00136
Inclination
97.3338°
RAAN
345.9325°
Arg. of periapsis
274.6969°
True anomaly
85.43259°
Mean anomaly
85.2775°
Eccentric anomaly
85.35504°
Mean motion
4.08086 °/min
Orbital period
88.22 mins
BSTAR
0.0017658
Loading maneuver chart data...
Computing Atmospheric mass density...
Loading historical data...
Loading historical data...
Loading historical data...
Loading historical data...
Loading historical data...
Loading historical data...
Loading historical data...

Documentation

Showing up to 5 results
|